Regional Weather Roundup
Issued by NWS

Home | Current Version | Previous Version | Text Only | Print | Product List | Glossary Off
Versions: 1 2 3 4 5 6 7 8 9 10 11 12 13 14 15 16 17 18 19 20 21 22 23 24 25 26 27 28 29 30 31 32 33 34 35 36 37 38 39 40 41 42 43 44 45 46 47 48 49 50

511
ASUS43 KLSX 280557
RWRMO

WEATHER SUMMARY FOR MISSOURI
NATIONAL WEATHER SERVICE SPRINGFIELD MO
100 AM CDT SUN MAY 28 2017

NOTE: "FAIR" INDICATES FEW OR NO CLOUDS BELOW 12,000 FEET WITH NO
       SIGNIFICANT WEATHER AND/OR OBSTRUCTIONS TO VISIBILITY.
       CURRENT SKY AND/OR WEATHER CONDITIONS ARE NOT AVAILABLE FOR
       CHILLICOTHE AND FARMINGTON.

MOZ001>031-035>038-043-044-053-054-280700-
...NORTHERN AND WESTERN MISSOURI...

CITY           SKY/WX    TMP DP  RH WIND       PRES   REMARKS
KANSAS CTY INT MOCLDY    63  60  90 N6        29.88R
6HR MIN TEMP:  62; 6HR MAX TEMP:  73;

LEE`S SUMMIT   CLOUDY    65  62  90 NW6       29.88R
6HR MIN TEMP:  63; 6HR MAX TEMP:  72;

ST JOSEPH      CLEAR     62  61  96 N5        29.90R
6HR MIN TEMP:  61; 6HR MAX TEMP:  74;

CHILLICOTHE      N/A     64  61  90 N5        29.86S
6HR MIN TEMP:  64; 6HR MAX TEMP:  78;


$$
MOZ066>068-077>081-088>096-101>105-280700-
...SOUTHWEST MISSOURI...

CITY           SKY/WX    TMP DP  RH WIND       PRES   REMARKS
SPRINGFIELD    CLOUDY    65  63  93 W6        29.83F
6HR MIN TEMP:  63; 6HR MAX TEMP:  67; 6HR PCP:  0.13;

JOPLIN         CLOUDY    67  66  97 N7        29.86F THUNDER
6HR MIN TEMP:  66; 6HR MAX TEMP:  73; 6HR PCP:  0.04;


$$
MOZ032>034-039>042-045>050-055>058-069>072-280700-
...CENTRAL MISSOURI...

CITY           SKY/WX    TMP DP  RH WIND       PRES   REMARKS
COLUMBIA       NOT AVBL
JEFFERSON CITY CLOUDY    63  60  90 E5        29.82S
6HR MIN TEMP:  63; 6HR MAX TEMP:  68;

ROLLA          FOG       60  60 100 N3        29.82S VSB 1
6HR MIN TEMP:  60; 6HR MAX TEMP:  66; 6HR PCP:  0.28;

SEDALIA        CLOUDY    64  62  93 NW6       29.84S
6HR MIN TEMP:  63; 6HR MAX TEMP:  68;

WARRENSBURG    CLOUDY    61  59  94 W3        29.85R

$$
MOZ051-052-059>065-280700-
...EAST CENTRAL MISSOURI...

CITY           SKY/WX    TMP DP  RH WIND       PRES   REMARKS
ST LOUIS INTL  CLOUDY    67  61  81 SW5       29.79F
6HR MIN TEMP:  66; 6HR MAX TEMP:  70; 6HR PCP: TRACE;


$$
MOZ072>076-082>087-097>100-106>115-280700-
...SOUTH CENTRAL AND SOUTHEAST MISSOURI...

CITY           SKY/WX    TMP DP  RH WIND       PRES   REMARKS
CAPE GIRARDEAU LGT RAIN  66  60  81 S8G17     29.79F
6HR MIN TEMP:  64; 6HR MAX TEMP:  70; 6HR PCP:  0.42;

POPLAR BLUFF   RAIN      64  63  96 W7          N/A
6HR MIN TEMP:  63; 6HR MAX TEMP:  68; 6HR PCP:  0.98;

WEST PLAINS    RAIN      62  60  93 S15G25    29.94R
6HR MIN TEMP:  59; 6HR MAX TEMP:  67; 6HR PCP:  1.30;


$$



USA.gov is the U.S. government's official web portal to all federal, state and local government web resources and services.